FW2402 Weather Reports


Display with metric or nautical units.
time (UTC)temp
F
wind
direction
speed
MPH
gust
MPH
rain 1hr
in
rain 24hr
in
rain mn
in
humidity
%
barometer
mb
20260510235017 82 273 4.0 9.0 0.00 0.07 0.07 71 1014.7
20260510234538 82 258 4.0 9.0 0.00 0.07 0.07 70 1014.6
20260510234017 83 262 4.0 9.0 0.00 0.07 0.07 69 1014.6
20260510233517 83 260 4.0 8.0 0.00 0.07 0.07 68 1014.5
20260510233038 83 307 4.0 9.0 0.00 0.07 0.07 68 1014.5
20260510232517 83 257 4.0 9.0 0.00 0.07 0.07 67 1014.4
20260510232016 84 290 5.0 9.0 0.00 0.07 0.07 67 1014.4
20260510231535 84 292 4.0 12.0 0.00 0.07 0.07 66 1014.4
20260510231017 84 283 6.0 12.0 0.00 0.07 0.07 65 1014.3
20260510230517 84 265 6.0 11.0 0.00 0.07 0.07 65 1014.3
20260510230050 84 302 3.0 10.0 0.00 0.07 0.07 64 1014.3
20260510225516 85 255 5.0 10.0 0.00 0.07 0.07 64 1014.2
20260510225021 85 288 5.0 10.0 0.00 0.07 0.07 64 1014.3
20260510224538 85 276 5.0 9.0 0.00 0.07 0.07 63 1014.2
20260510224018 85 267 6.0 10.0 0.00 0.07 0.07 63 1014.3
20260510223521 85 265 6.0 10.0 0.00 0.07 0.07 63 1014.2
20260510223038 85 263 6.0 10.0 0.00 0.07 0.07 62 1014.3
20260510222516 85 296 7.0 10.0 0.00 0.07 0.07 61 1014.3
20260510222023 85 265 7.0 12.0 0.00 0.07 0.07 61 1014.3
20260510221537 85 267 7.0 12.0 0.00 0.07 0.07 61 1014.3
20260510221040 85 267 8.0 11.0 0.00 0.07 0.07 61 1014.2
20260510220519 85 257 6.0 10.0 0.00 0.07 0.07 62 1014.3
20260510220036 85 280 5.0 11.0 0.00 0.07 0.07 63 1014.3
20260510215516 86 291 5.0 11.0 0.00 0.07 0.07 62 1014.3
20260510215020 86 284 5.0 12.0 0.00 0.07 0.07 62 1014.4
20260510214535 86 276 8.0 12.0 0.00 0.07 0.07 61 1014.3
20260510214017 86 266 6.0 14.0 0.00 0.07 0.07 63 1014.3
20260510213521 86 269 7.0 14.0 0.00 0.07 0.07 62 1014.4
20260510213046 86 271 9.0 14.0 0.00 0.07 0.07 59 1014.4
20260510212516 86 273 8.0 14.0 0.00 0.07 0.07 64 1014.4
20260510212016 87 269 7.0 12.0 0.00 0.07 0.07 63 1014.4
20260510211532 87 311 6.0 11.0 0.00 0.07 0.07 66 1014.4
20260510211017 86 257 4.0 13.0 0.00 0.07 0.07 68 1014.4
20260510210516 86 258 7.0 13.0 0.00 0.07 0.07 67 1014.4
20260510210038 85 266 6.0 12.0 0.00 0.07 0.07 68 1014.4
20260510205517 85 263 6.0 12.0 0.00 0.07 0.07 68 1014.4
20260510205019 85 288 6.0 11.0 0.00 0.07 0.07 66 1014.4
20260510204545 86 259 7.0 11.0 0.00 0.07 0.07 66 1014.4
20260510204016 86 266 7.0 10.0 0.00 0.07 0.07 67 1014.4
20260510203516 85 276 4.0 8.0 0.00 0.07 0.07 68 1014.5
20260510203035 85 259 4.0 8.0 0.00 0.07 0.07 70 1014.5
20260510202516 84 232 2.0 6.0 0.00 0.07 0.07 71 1014.5
20260510202017 84 245 2.0 4.0 0.00 0.07 0.07 71 1014.4
20260510201533 84 223 0.0 6.0 0.00 0.07 0.07 73 1014.4
20260510201018 83 0 1.0 6.0 0.00 0.07 0.07 78 1014.5
20260510200517 82 223 1.0 5.0 0.00 0.07 0.07 78 1014.5
20260510200041 81 174 1.0 6.0 0.00 0.07 0.07 79 1014.7
20260510195516 80 0 0.0 6.0 0.01 0.07 0.07 79 1014.7
20260510195016 80 200 1.0 10.0 0.03 0.07 0.07 76 1015.0
20260510194545 81 250 2.0 10.0 0.04 0.07 0.07 73 1015.1
20260510194016 82 216 3.0 10.0 0.04 0.07 0.07 78 1014.9
20260510193516 80 211 1.0 7.0 0.06 0.07 0.07 82 1015.1
20260510193040 81 229 1.0 5.0 0.07 0.07 0.07 82 1015.0
20260510192516 78 113 2.0 11.0 0.07 0.07 0.07 82 1014.8
20260510192016 76 80 6.0 11.0 0.07 0.07 0.07 83 1014.7
20260510191534 75 111 5.0 12.0 0.07 0.07 0.07 81 1015.0
20260510191016 75 122 7.0 17.0 0.07 0.07 0.07 80 1015.2
20260510190519 74 172 8.0 17.0 0.07 0.07 0.07 80 1015.2
20260510190035 75 192 6.0 15.0 0.07 0.07 0.07 85 1015.4
20260510185517 75 186 0.0 4.0 0.06 0.06 0.06 87 1015.6
20260510185019 75 0 1.0 4.0 0.03 0.03 0.03 86 1015.5
20260510184542 76 117 1.0 4.0 0.03 0.03 0.03 87 1015.5
20260510184019 76 221 1.0 12.0 0.02 0.02 0.02 84 1015.1
20260510183517 77 228 2.0 12.0 0.01 0.01 0.01 80 1015.2
20260510183038 80 259 2.0 10.0 0.00 0.00 0.00 74 1015.3
20260510182516 81 244 4.0 10.0 0.00 0.00 0.00 72 1015.1
20260510182016 81 262 6.0 11.0 0.00 0.00 0.00 70 1015.2
20260510181537 81 263 6.0 11.0 0.00 0.00 0.00 69 1015.2
20260510181016 81 252 1.0 11.0 0.00 0.00 0.00 72 1015.1
20260510180516 81 236 3.0 19.0 0.00 0.00 0.00 75 1015.1
20260510180037 80 238 4.0 19.0 0.00 0.00 0.00 77 1015.3
20260510175518 82 238 5.0 13.0 0.00 0.00 0.00 76 1015.4
20260510175016 83 263 3.0 11.0 0.00 0.00 0.00 71 1015.2
20260510174535 86 134 5.0 11.0 0.00 0.00 0.00 65 1014.9
20260510174015 88 142 2.0 6.0 0.00 0.00 0.00 62 1015.0
20260510173516 88 137 1.0 8.0 0.00 0.00 0.00 59 1014.9
20260510173034 88 161 0.0 8.0 0.00 0.00 0.00 58 1014.9
20260510172516 89 275 3.0 12.0 0.00 0.00 0.00 56 1014.9
20260510172016 90 234 2.0 12.0 0.00 0.00 0.00 55 1014.9
20260510171531 91 260 2.0 10.0 0.00 0.00 0.00 55 1014.9
20260510171015 88 271 0.0 5.0 0.00 0.00 0.00 58 1015.0
20260510170517 89 260 2.0 10.0 0.00 0.00 0.00 56 1015.2
20260510170034 90 238 2.0 10.0 0.00 0.00 0.00 56 1015.2
20260510165517 91 252 3.0 10.0 0.00 0.00 0.00 54 1015.4
20260510165017 90 245 2.0 7.0 0.00 0.00 0.00 56 1015.4
20260510164549 90 0 3.0 15.0 0.00 0.00 0.00 57 1015.5
20260510164017 89 0 1.0 15.0 0.00 0.00 0.00 58 1015.4
20260510163516 90 225 6.0 15.0 0.00 0.00 0.00 56 1015.5
20260510163037 90 242 2.0 11.0 0.00 0.00 0.00 56 1015.6
20260510162516 89 216 6.0 11.0 0.00 0.00 0.00 58 1015.7
20260510162016 90 250 1.0 9.0 0.00 0.00 0.00 56 1015.7
20260510161534 90 182 2.0 9.0 0.00 0.00 0.00 56 1015.9
20260510161018 90 259 2.0 8.0 0.00 0.00 0.00 58 1015.8
20260510160516 89 138 3.0 10.0 0.00 0.00 0.00 61 1015.9
20260510160036 89 165 5.0 10.0 0.00 0.00 0.00 60 1015.8
20260510155515 89 267 1.0 9.0 0.00 0.00 0.00 60 1015.8
20260510155016 89 254 3.0 10.0 0.00 0.00 0.00 62 1015.8
20260510154545 88 252 3.0 12.0 0.00 0.00 0.00 62 1015.8
20260510154019 88 202 6.0 12.0 0.00 0.00 0.00 62 1015.8
20260510153517 89 269 2.0 9.0 0.00 0.00 0.00 60 1015.7
20260510153031 90 234 2.0 11.0 0.00 0.00 0.00 59 1015.8
20260510152516 89 147 4.0 11.0 0.00 0.00 0.00 61 1015.7
20260510152017 88 213 5.0 9.0 0.00 0.00 0.00 62 1015.6
20260510151539 89 167 1.0 13.0 0.00 0.00 0.00 62 1015.6
20260510151016 88 293 3.0 13.0 0.00 0.00 0.00 62 1015.8
20260510150518 89 229 3.0 9.0 0.00 0.00 0.00 61 1015.8
20260510150043 87 277 1.0 9.0 0.00 0.00 0.00 65 1015.8
20260510145520 87 191 1.0 9.0 0.00 0.00 0.00 63 1015.7
20260510145019 87 156 1.0 7.0 0.00 0.00 0.00 65 1015.7
20260510144546 87 175 2.0 7.0 0.00 0.00 0.00 66 1015.7
20260510144022 86 165 1.0 6.0 0.00 0.00 0.00 67 1015.8
20260510143520 85 0 1.0 9.0 0.00 0.00 0.00 67 1015.8
20260510143039 85 232 1.0 9.0 0.00 0.00 0.00 66 1015.6
20260510142516 85 223 2.0 9.0 0.00 0.00 0.00 67 1015.6
20260510142019 84 157 1.0 9.0 0.00 0.00 0.00 70 1015.6
20260510141541 84 146 4.0 9.0 0.00 0.00 0.00 69 1015.5
20260510141020 84 115 4.0 9.0 0.00 0.00 0.00 70 1015.6
20260510140520 82 0 4.0 9.0 0.00 0.00 0.00 72 1015.5
20260510140041 82 150 3.0 7.0 0.00 0.00 0.00 73 1015.6
20260510135519 82 128 2.0 7.0 0.00 0.00 0.00 73 1015.7
20260510135019 82 108 3.0 10.0 0.00 0.00 0.00 72 1015.7
20260510134538 82 186 2.0 10.0 0.00 0.00 0.00 73 1015.7
20260510134020 81 138 3.0 8.0 0.00 0.00 0.00 74 1015.5
20260510133519 81 157 2.0 8.0 0.00 0.00 0.00 74 1015.4
20260510133037 80 0 3.0 9.0 0.00 0.00 0.00 75 1015.5
20260510132516 80 264 3.0 9.0 0.00 0.00 0.00 75 1015.5
20260510132016 81 0 1.0 6.0 0.00 0.00 0.00 76 1015.5
20260510131544 80 0 2.0 6.0 0.00 0.00 0.00 77 1015.4
20260510131016 80 151 2.0 6.0 0.00 0.00 0.00 77 1015.4
20260510130520 80 147 1.0 7.0 0.00 0.00 0.00 78 1015.4
20260510130032 79 0 1.0 9.0 0.00 0.00 0.00 80 1015.4
20260510125519 79 173 4.0 9.0 0.00 0.00 0.00 80 1015.4
20260510125019 79 210 2.0 5.0 0.00 0.00 0.00 81 1015.4
20260510124540 78 136 1.0 6.0 0.00 0.00 0.00 83 1015.3
20260510124019 77 145 0.0 6.0 0.00 0.00 0.00 85 1015.3
20260510123520 76 0 0.0 5.0 0.00 0.00 0.00 86 1015.2
20260510123038 76 0 0.0 5.0 0.00 0.00 0.00 87 1015.1
20260510122519 76 0 1.0 6.0 0.00 0.00 0.00 88 1015.1
20260510122019 75 155 2.0 6.0 0.00 0.00 0.00 89 1015.1
20260510121539 75 170 0.0 5.0 0.00 0.00 0.00 90 1015.0
20260510121019 74 165 1.0 4.0 0.00 0.00 0.00 91 1015.0
20260510120518 73 287 0.0 4.0 0.00 0.00 0.00 92 1014.9
20260510120038 73 0 0.0 0.0 0.00 0.00 0.00 93 1015.0
20260510115516 72 0 0.0 0.0 0.00 0.00 0.00 93 1014.8
20260510115017 72 0 0.0 1.0 0.00 0.00 0.00 93 1014.8
20260510114545 72 0 0.0 1.0 0.00 0.00 0.00 93 1014.6
20260510114019 72 0 0.0 2.0 0.00 0.00 0.00 93 1014.4
20260510113515 71 0 0.0 3.0 0.00 0.00 0.00 93 1014.3
20260510113034 71 0 0.0 4.0 0.00 0.00 0.00 93 1014.1
20260510112520 71 140 1.0 4.0 0.00 0.00 0.00 94 1013.9
20260510112016 71 0 1.0 3.0 0.00 0.00 0.00 94 1013.8
20260510111536 71 134 1.0 3.0 0.00 0.00 0.00 94 1013.7
20260510111016 71 0 0.0 2.0 0.00 0.00 0.00 94 1013.8
20260510110516 70 124 0.0 2.0 0.00 0.00 0.00 94 1013.9
20260510110038 70 0 0.0 0.0 0.00 0.00 0.00 94 1013.7
20260510105515 70 0 0.0 0.0 0.00 0.00 0.00 94 1013.7
20260510105019 70 0 0.0 0.0 0.00 0.00 0.00 94 1013.7
20260510104537 70 0 0.0 0.0 0.00 0.00 0.00 93 1013.6
20260510104019 70 0 0.0 0.0 0.00 0.00 0.00 93 1013.6
20260510103518 70 0 0.0 0.0 0.00 0.00 0.00 93 1013.5
20260510103037 70 0 0.0 0.0 0.00 0.00 0.00 93 1013.4
20260510102518 70 0 0.0 0.0 0.00 0.00 0.00 93 1013.4
20260510102020 70 0 0.0 0.0 0.00 0.00 0.00 93 1013.5
20260510101535 70 0 0.0 0.0 0.00 0.00 0.00 93 1013.4
20260510101019 70 0 0.0 0.0 0.00 0.00 0.00 92 1013.3
20260510100516 70 0 0.0 0.0 0.00 0.00 0.00 92 1013.1
20260510100034 71 0 0.0 0.0 0.00 0.00 0.00 92 1013.0
20260510095516 71 0 0.0 0.0 0.00 0.00 0.00 91 1012.9
20260510095017 71 0 0.0 0.0 0.00 0.00 0.00 91 1012.8
20260510094535 72 0 0.0 0.0 0.00 0.00 0.00 91 1012.9
20260510094019 72 0 0.0 1.0 0.00 0.00 0.00 91 1012.8
20260510093519 72 0 0.0 1.0 0.00 0.00 0.00 91 1012.8
20260510093033 72 128 0.0 2.0 0.00 0.00 0.00 91 1012.8
20260510092519 72 128 0.0 3.0 0.00 0.00 0.00 91 1012.8
20260510092017 72 0 1.0 3.0 0.00 0.00 0.00 91 1012.9
20260510091540 72 120 1.0 2.0 0.00 0.00 0.00 91 1012.8
20260510091017 72 127 0.0 0.0 0.00 0.00 0.00 91 1012.7
20260510090517 72 0 0.0 3.0 0.00 0.00 0.00 91 1012.8
20260510090039 72 0 0.0 3.0 0.00 0.00 0.00 91 1012.7
20260510085516 72 127 1.0 3.0 0.00 0.00 0.00 91 1012.7
20260510085017 72 0 0.0 2.0 0.00 0.00 0.00 91 1012.6
20260510084540 72 0 0.0 3.0 0.00 0.00 0.00 91 1012.7
20260510084017 72 0 0.0 4.0 0.00 0.00 0.00 91 1012.5
20260510083520 72 132 0.0 5.0 0.00 0.00 0.00 91 1012.3
20260510083032 72 0 2.0 5.0 0.00 0.00 0.00 91 1012.3
20260510082516 72 186 2.0 5.0 0.00 0.00 0.00 92 1012.2
20260510082016 72 0 1.0 4.0 0.00 0.00 0.00 92 1012.2
20260510081541 72 135 2.0 4.0 0.00 0.00 0.00 92 1012.3
20260510081017 72 110 1.0 4.0 0.00 0.00 0.00 92 1012.1
20260510080518 72 98 1.0 4.0 0.00 0.00 0.00 92 1012.3
20260510080048 72 125 1.0 3.0 0.00 0.00 0.00 92 1012.6
20260510075517 72 107 1.0 4.0 0.00 0.00 0.00 92 1012.5
20260510075017 72 148 1.0 4.0 0.00 0.00 0.00 92 1012.7
20260510074547 72 113 0.0 3.0 0.00 0.00 0.00 92 1012.6
20260510074017 72 138 1.0 4.0 0.00 0.00 0.00 92 1012.7
20260510073517 72 132 1.0 4.0 0.00 0.00 0.00 92 1012.8
20260510073042 72 174 1.0 4.0 0.00 0.00 0.00 92 1012.7
20260510072517 72 138 1.0 4.0 0.00 0.00 0.00 93 1012.7
20260510072020 72 134 2.0 4.0 0.00 0.00 0.00 93 1012.8
20260510071537 72 117 1.0 2.0 0.00 0.00 0.00 93 1012.8
20260510071016 72 117 1.0 2.0 0.00 0.00 0.00 93 1012.8
20260510070517 72 0 0.0 0.0 0.00 0.00 0.00 93 1012.9
20260510070035 72 0 0.0 2.0 0.00 0.00 0.00 93 1013.0
20260510065517 72 0 0.0 2.0 0.00 0.00 0.00 93 1013.1
20260510065017 72 48 0.0 1.0 0.00 0.00 0.00 93 1013.0
20260510064557 72 0 0.0 1.0 0.00 0.00 0.00 93 1013.0
20260510064019 72 0 0.0 1.0 0.00 0.00 0.00 93 1013.0
20260510063517 71 0 0.0 0.0 0.00 0.00 0.00 93 1013.0
20260510063032 72 0 0.0 1.0 0.00 0.00 0.00 93 1013.2
20260510062517 72 0 0.0 1.0 0.00 0.00 0.00 93 1013.3
20260510062017 71 0 0.0 1.0 0.00 0.00 0.00 93 1013.4
20260510061537 71 0 0.0 0.0 0.00 0.00 0.00 93 1013.6
20260510061017 71 0 0.0 0.0 0.00 0.00 0.00 93 1013.6
20260510060517 71 0 0.0 0.0 0.00 0.00 0.00 93 1013.6
20260510060038 71 0 0.0 0.0 0.00 0.00 0.00 93 1013.7
20260510055517 71 0 0.0 0.0 0.00 0.00 0.00 93 1013.8
20260510055017 71 0 0.0 2.0 0.00 0.00 0.00 93 1013.8
20260510054542 71 0 0.0 2.0 0.00 0.00 0.00 93 1013.9
20260510054017 71 0 0.0 2.0 0.00 0.00 0.00 91 1013.8
20260510053522 72 0 0.0 0.0 0.00 0.00 0.00 92 1013.8
20260510053043 72 0 0.0 1.0 0.00 0.00 0.00 93 1013.7
20260510052518 72 0 0.0 1.0 0.00 0.00 0.00 93 1013.8
20260510052018 72 0 0.0 1.0 0.00 0.00 0.00 93 1013.9
20260510051548 72 0 0.0 0.0 0.00 0.00 0.00 92 1013.9
20260510051021 72 0 0.0 0.0 0.00 0.00 0.00 92 1014.0
20260510050517 72 0 0.0 0.0 0.00 0.00 0.00 92 1014.0
20260510050036 72 0 0.0 0.0 0.00 0.00 0.00 92 1014.1
20260510045516 72 0 0.0 0.0 0.00 0.00 0.00 91 1014.1
20260510045018 72 0 0.0 0.0 0.00 0.00 0.00 91 1014.2
20260510044537 73 0 0.0 0.0 0.00 0.00 0.00 91 1014.3
20260510044017 73 0 0.0 0.0 0.00 0.00 0.00 90 1014.3
20260510043517 73 0 0.0 0.0 0.00 0.00 0.00 90 1014.3
20260510043035 74 0 0.0 0.0 0.00 0.00 0.00 90 1014.3
20260510042519 74 0 0.0 0.0 0.00 0.00 0.00 89 1014.4
20260510042019 74 0 0.0 2.0 0.00 0.00 0.00 89 1014.4
20260510041535 75 0 0.0 3.0 0.00 0.00 0.00 88 1014.2
20260510041018 75 25 0.0 3.0 0.00 0.00 0.00 88 1014.3
20260510040517 75 28 1.0 3.0 0.00 0.00 0.00 88 1014.3
20260510040044 75 29 1.0 4.0 0.00 0.00 0.00 88 1014.2
20260510035516 75 87 2.0 6.0 0.00 0.00 0.00 88 1014.1
20260510035020 75 69 2.0 6.0 0.00 0.00 0.00 88 1014.0
20260510034532 75 63 2.0 4.0 0.00 0.00 0.00 88 1014.0
20260510034019 75 59 2.0 5.0 0.00 0.00 0.00 89 1014.1
20260510033516 75 88 2.0 5.0 0.00 0.00 0.00 89 1014.1
20260510033045 74 98 2.0 5.0 0.00 0.00 0.00 89 1014.1
20260510032516 74 94 1.0 3.0 0.00 0.00 0.00 89 1014.1
20260510032017 74 108 0.0 2.0 0.00 0.00 0.00 90 1014.2
20260510031537 74 0 0.0 0.0 0.00 0.00 0.00 89 1014.2
20260510031018 74 0 0.0 1.0 0.00 0.00 0.00 88 1014.3
20260510030518 74 0 0.0 1.0 0.00 0.00 0.00 88 1014.3
20260510030037 75 0 0.0 2.0 0.00 0.00 0.00 88 1014.2
20260510025519 75 0 0.0 3.0 0.00 0.00 0.00 87 1014.1
20260510025020 76 0 0.0 4.0 0.00 0.00 0.00 86 1014.0
20260510024536 76 0 1.0 4.0 0.00 0.00 0.00 87 1014.1
20260510024018 76 82 1.0 4.0 0.00 0.00 0.00 87 1014.1
20260510023520 76 68 1.0 3.0 0.00 0.00 0.00 86 1014.1
20260510023034 76 78 2.0 3.0 0.00 0.00 0.00 86 1014.0
20260510022520 76 72 1.0 4.0 0.00 0.00 0.00 85 1013.9
20260510022017 76 72 1.0 5.0 0.00 0.00 0.00 85 1013.9
20260510021543 76 59 2.0 5.0 0.00 0.00 0.00 84 1013.9
20260510021018 76 77 2.0 5.0 0.00 0.00 0.00 83 1013.8
20260510020516 77 84 2.0 5.0 0.00 0.00 0.00 82 1013.8
20260510020037 77 65 2.0 5.0 0.00 0.00 0.00 82 1013.8
20260510015516 76 49 2.0 4.0 0.00 0.00 0.00 82 1013.7
20260510015016 76 0 0.0 0.0 0.00 0.00 0.00 83 1013.7
20260510014536 76 0 0.0 0.0 0.00 0.00 0.00 82 1013.7
20260510014017 76 0 0.0 0.0 0.00 0.00 0.00 80 1013.6
20260510013517 76 0 0.0 0.0 0.00 0.00 0.00 80 1013.6
20260510013036 77 0 0.0 0.0 0.00 0.00 0.00 78 1013.5
20260510012517 77 0 0.0 0.0 0.00 0.00 0.00 77 1013.4
20260510012017 78 0 0.0 0.0 0.00 0.00 0.00 76 1013.4
20260510011538 78 0 0.0 0.0 0.00 0.00 0.00 75 1013.3
20260510011016 78 0 0.0 0.0 0.00 0.00 0.00 76 1013.2
20260510010516 78 0 0.0 0.0 0.00 0.00 0.00 75 1013.3
20260510010045 79 0 0.0 0.0 0.00 0.00 0.00 75 1013.3
20260510005517 79 0 0.0 0.0 0.00 0.00 0.00 75 1013.1
20260510005020 79 0 0.0 0.0 0.00 0.00 0.00 75 1013.2
20260510004541 79 0 0.0 0.0 0.00 0.00 0.00 74 1013.2
20260510004016 79 0 0.0 2.0 0.00 0.00 0.00 74 1013.0
20260510003516 79 0 0.0 2.0 0.00 0.00 0.00 74 1013.0
20260510003046 79 0 0.0 4.0 0.00 0.00 0.00 74 1012.9
20260510002516 79 0 0.0 7.0 0.00 0.00 0.00 74 1012.8
20260510002016 80 286 2.0 7.0 0.00 0.00 0.00 73 1012.9
20260510001537 80 284 3.0 9.0 0.00 0.00 0.00 73 1012.7
20260510001016 80 310 2.0 9.0 0.00 0.00 0.00 72 1012.6
20260510000516 80 271 3.0 12.0 0.00 0.00 0.00 71 1012.4
20260510000037 81 277 2.0 12.0 0.00 0.00 0.00 70 1012.3
20260509235519 81 288 4.0 12.0 0.00 0.00 0.00 70 1012.3